Location: Grand Moustoir
(47.8355°N, 3.3120°W)
Time: 05:35:18
(UTC+00:00)

METEOR-M - Pass Details

Date: 20 January 2020
Orbit: 816 x 820 km, 98.4° (Epoch: 23 February)

Event Time Altitude Azimuth Distance (km) Brightness Sun altitude
Rises 06:01:41 0° 11° (N) 3,363 7.3 -18.5°
Reaches altitude 10° 06:04:03 10° 8° (N) 2,426 6.6 -18.1°
Maximum altitude 06:09:21 63° 289° (WNW) 913 4.1 -17.3°
Drops below altitude 10° 06:14:37 10° 209° (SSW) 2,407 6.4 -16.4°
Sets 06:16:58 0° 206° (SSW) 3,334 7.2 -16.0°
